Waukegan National Airport (UGN)


Airport Diagram
Current Weather/Forecast (VFR Conditions)
METAR KUGN 240855Z AUTO 32005KT 10SM CLR 02/M04 A2990 RMK AO2 SLP129 T00221039 58000
TAF

All Charts
General
Chart Name Download
AIRPORT DIAGRAM
TAKEOFF MINIMUMS
ALTERNATE MINIMUMS

Departures
Chart Name Download
JORJO FIVE (RNAV)
JORJO FIVE (RNAV), CONT.1
MONKZ FIVE (RNAV)
MONKZ FIVE (RNAV), CONT.1

Arrivals
Chart Name Download
GOPAC TWO (RNAV)

Approaches
Chart Name Download
ILS OR LOC RWY 23
RNAV (GPS) RWY 05
RNAV (GPS) RWY 23